Time,TemperatureF,DewpointF,PressureIn,WindDirection,WindDirectionDegrees,WindSpeedMPH,WindSpeedGustMPH,Humidity,HourlyPrecipIn,Conditions,Clouds,dailyrainin,SoftwareType,DateUTC
2013-05-30 00:01:00,77.2,71.3,30.06,West,269,5.0,6.0,82,0.00,,,0.00,Wunderground v.1.15,2013-05-30 04:01:00,
2013-05-30 00:02:00,77.2,71.3,30.06,ESE,103,10.0,10.0,82,0.00,,,0.00,Wunderground v.1.15,2013-05-30 04:02:00,
2013-05-30 00:06:00,77.4,71.5,30.06,East,82,0.0,10.0,82,0.00,,,0.00,Wunderground v.1.15,2013-05-30 04:06:00,
2013-05-30 00:10:00,77.3,71.4,30.06,East,98,3.0,4.0,82,0.00,,,0.00,Wunderground v.1.15,2013-05-30 04:10:00,
2013-05-30 00:15:00,77.4,71.1,30.06,East,96,4.0,7.0,81,0.00,,,0.00,Wunderground v.1.15,2013-05-30 04:15:00,
2013-05-30 00:22:00,77.5,70.8,30.06,ENE,70,0.0,7.0,80,0.00,,,0.00,Wunderground v.1.15,2013-05-30 04:22:00,
2013-05-30 00:23:00,77.6,70.9,30.06,East,86,2.0,7.0,80,0.00,,,0.00,Wunderground v.1.15,2013-05-30 04:23:00,
2013-05-30 00:29:00,77.7,70.7,30.06,East,94,1.0,11.0,79,0.00,,,0.00,Wunderground v.1.15,2013-05-30 04:29:00,
2013-05-30 00:34:00,77.7,70.7,30.06,ESE,108,1.0,4.0,79,0.00,,,0.00,Wunderground v.1.15,2013-05-30 04:34:00,
2013-05-30 00:39:00,77.7,70.7,30.06,ENE,77,3.0,6.0,79,0.00,,,0.00,Wunderground v.1.15,2013-05-30 04:39:00,
2013-05-30 00:45:00,77.7,71.0,30.06,East,90,4.0,4.0,80,0.00,,,0.00,Wunderground v.1.15,2013-05-30 04:45:00,
2013-05-30 00:50:00,77.6,71.3,30.06,ESE,106,11.0,11.0,81,0.00,,,0.00,Wunderground v.1.15,2013-05-30 04:50:00,
2013-05-30 00:55:00,77.7,71.4,30.06,SSE,162,3.0,11.0,81,0.00,,,0.00,Wunderground v.1.15,2013-05-30 04:55:00,
2013-05-30 01:00:00,77.6,71.3,30.06,SE,124,2.0,5.0,81,0.00,,,0.00,Wunderground v.1.15,2013-05-30 05:00:00,
2013-05-30 01:06:00,77.5,71.2,30.06,NE,53,3.0,9.0,81,0.00,,,0.00,Wunderground v.1.15,2013-05-30 05:06:00,
2013-05-30 01:11:00,77.5,70.8,30.06,ESE,111,8.0,8.0,80,0.00,,,0.00,Wunderground v.1.15,2013-05-30 05:11:00,
2013-05-30 01:16:00,77.5,70.8,30.06,East,97,3.0,8.0,80,0.00,,,0.00,Wunderground v.1.15,2013-05-30 05:16:00,
2013-05-30 01:21:00,77.5,71.2,30.06,East,82,0.0,4.0,81,0.00,,,0.00,Wunderground v.1.15,2013-05-30 05:21:00,
2013-05-30 01:26:00,77.6,71.3,30.06,East,79,0.0,4.0,81,0.00,,,0.00,Wunderground v.1.15,2013-05-30 05:26:00,
2013-05-30 01:31:00,77.6,71.3,30.05,ENE,77,9.0,9.0,81,0.00,,,0.00,Wunderground v.1.15,2013-05-30 05:31:00,
2013-05-30 01:36:00,77.7,71.4,30.05,East,99,3.0,10.0,81,0.00,,,0.00,Wunderground v.1.15,2013-05-30 05:36:00,
2013-05-30 01:42:00,77.7,71.8,30.05,East,83,2.0,7.0,82,0.00,,,0.00,Wunderground v.1.15,2013-05-30 05:42:00,
2013-05-30 01:47:00,77.6,71.7,30.05,ENE,65,2.0,7.0,82,0.00,,,0.00,Wunderground v.1.15,2013-05-30 05:47:00,
2013-05-30 01:52:00,77.6,71.7,30.04,ENE,65,2.0,7.0,82,0.00,,,0.00,Wunderground v.1.15,2013-05-30 05:52:00,
2013-05-30 01:57:00,77.7,72.1,30.04,East,89,1.0,7.0,83,0.00,,,0.00,Wunderground v.1.15,2013-05-30 05:57:00,
2013-05-30 02:02:00,77.6,72.0,30.04,WSW,240,4.0,9.0,83,0.00,,,0.00,Wunderground v.1.15,2013-05-30 06:02:00,
2013-05-30 02:07:00,77.7,71.8,30.04,ENE,68,0.0,13.0,82,0.00,,,0.00,Wunderground v.1.15,2013-05-30 06:07:00,
2013-05-30 02:12:00,77.7,71.4,30.04,WSW,238,2.0,7.0,81,0.00,,,0.00,Wunderground v.1.15,2013-05-30 06:12:00,
2013-05-30 02:17:00,77.7,71.0,30.04,East,86,6.0,9.0,80,0.00,,,0.00,Wunderground v.1.15,2013-05-30 06:17:00,
2013-05-30 02:22:00,77.9,70.5,30.03,ESE,116,7.0,12.0,78,0.00,,,0.00,Wunderground v.1.15,2013-05-30 06:22:00,
2013-05-30 02:27:00,78.0,70.6,30.04,ENE,76,4.0,12.0,78,0.00,,,0.00,Wunderground v.1.15,2013-05-30 06:27:00,
2013-05-30 02:32:00,78.1,70.7,30.03,East,90,4.0,10.0,78,0.00,,,0.00,Wunderground v.1.15,2013-05-30 06:32:00,
2013-05-30 02:37:00,78.1,71.1,30.03,SE,137,4.0,11.0,79,0.00,,,0.00,Wunderground v.1.15,2013-05-30 06:37:00,
2013-05-30 02:42:00,77.9,70.9,30.03,NNE,15,3.0,11.0,79,0.00,,,0.00,Wunderground v.1.15,2013-05-30 06:42:00,
2013-05-30 02:47:00,77.8,71.1,30.03,SE,145,1.0,11.0,80,0.00,,,0.00,Wunderground v.1.15,2013-05-30 06:47:00,
2013-05-30 02:52:00,77.7,71.0,30.03,ESE,108,8.0,12.0,80,0.00,,,0.00,Wunderground v.1.15,2013-05-30 06:52:00,
2013-05-30 02:57:00,77.7,70.7,30.03,NNE,26,3.0,12.0,79,0.00,,,0.00,Wunderground v.1.15,2013-05-30 06:57:00,
2013-05-30 03:02:00,77.7,70.7,30.02,SE,124,6.0,6.0,79,0.00,,,0.00,Wunderground v.1.15,2013-05-30 07:02:00,
2013-05-30 03:07:00,77.5,70.5,30.02,East,99,2.0,6.0,79,0.00,,,0.00,Wunderground v.1.15,2013-05-30 07:07:00,
2013-05-30 03:12:00,77.5,70.5,30.02,East,91,3.0,4.0,79,0.00,,,0.00,Wunderground v.1.15,2013-05-30 07:12:00,
2013-05-30 03:17:00,77.4,70.7,30.02,SE,136,2.0,6.0,80,0.00,,,0.00,Wunderground v.1.15,2013-05-30 07:17:00,
2013-05-30 03:22:00,77.4,70.4,30.02,ENE,76,2.0,10.0,79,0.00,,,0.00,Wunderground v.1.15,2013-05-30 07:22:00,
2013-05-30 03:27:00,77.5,70.5,30.02,East,95,7.0,10.0,79,0.00,,,0.00,Wunderground v.1.15,2013-05-30 07:27:00,
2013-05-30 03:32:00,77.5,70.1,30.02,SE,134,6.0,6.0,78,0.00,,,0.00,Wunderground v.1.15,2013-05-30 07:32:00,
2013-05-30 03:37:00,77.5,70.5,30.02,ENE,77,1.0,7.0,79,0.00,,,0.00,Wunderground v.1.15,2013-05-30 07:37:00,
2013-05-30 03:42:00,77.6,70.6,30.02,ENE,77,7.0,7.0,79,0.00,,,0.00,Wunderground v.1.15,2013-05-30 07:42:00,
2013-05-30 03:47:00,77.7,70.7,30.03,East,101,9.0,13.0,79,0.00,,,0.00,Wunderground v.1.15,2013-05-30 07:47:00,
2013-05-30 03:52:00,77.8,70.8,30.03,SE,142,2.0,10.0,79,0.00,,,0.00,Wunderground v.1.15,2013-05-30 07:52:00,
2013-05-30 03:57:00,77.7,70.7,30.02,East,79,2.0,10.0,79,0.00,,,0.00,Wunderground v.1.15,2013-05-30 07:57:00,
2013-05-30 04:02:00,77.8,71.1,30.02,East,92,0.0,8.0,80,0.00,,,0.00,Wunderground v.1.15,2013-05-30 08:02:00,
2013-05-30 04:07:00,77.8,71.5,30.03,East,91,2.0,13.0,81,0.00,,,0.00,Wunderground v.1.15,2013-05-30 08:07:00,
2013-05-30 04:12:00,77.7,71.8,30.02,East,98,6.0,8.0,82,0.00,,,0.00,Wunderground v.1.15,2013-05-30 08:12:00,
2013-05-30 04:17:00,77.6,71.7,30.02,East,79,2.0,8.0,82,0.00,,,0.00,Wunderground v.1.15,2013-05-30 08:17:00,
2013-05-30 04:22:00,77.6,72.0,30.02,East,101,0.0,7.0,83,0.00,,,0.00,Wunderground v.1.15,2013-05-30 08:22:00,
2013-05-30 04:27:00,77.6,72.0,30.02,East,93,6.0,10.0,83,0.00,,,0.00,Wunderground v.1.15,2013-05-30 08:27:00,
2013-05-30 04:32:00,77.7,71.8,30.02,ESE,103,7.0,12.0,82,0.00,,,0.00,Wunderground v.1.15,2013-05-30 08:32:00,
2013-05-30 04:37:00,77.7,71.8,30.02,ENE,63,4.0,12.0,82,0.00,,,0.00,Wunderground v.1.15,2013-05-30 08:37:00,
2013-05-30 04:42:00,77.7,71.8,30.02,East,101,3.0,12.0,82,0.00,,,0.00,Wunderground v.1.15,2013-05-30 08:42:00,
2013-05-30 04:47:00,77.7,71.8,30.02,East,89,2.0,12.0,82,0.00,,,0.00,Wunderground v.1.15,2013-05-30 08:47:00,
2013-05-30 04:52:00,77.7,71.8,30.02,ESE,106,8.0,10.0,82,0.00,,,0.00,Wunderground v.1.15,2013-05-30 08:52:00,
2013-05-30 04:57:00,77.8,71.9,30.02,ESE,113,6.0,10.0,82,0.00,,,0.00,Wunderground v.1.15,2013-05-30 08:57:00,
2013-05-30 05:02:00,77.8,71.5,30.02,East,81,6.0,11.0,81,0.00,,,0.00,Wunderground v.1.15,2013-05-30 09:02:00,
2013-05-30 05:08:00,77.9,71.6,30.02,East,82,2.0,16.0,81,0.00,,,0.00,Wunderground v.1.15,2013-05-30 09:08:00,
2013-05-30 05:13:00,78.0,71.7,30.02,ENE,77,2.0,9.0,81,0.00,,,0.00,Wunderground v.1.15,2013-05-30 09:13:00,
2013-05-30 05:18:00,77.9,71.6,30.02,ESE,105,3.0,13.0,81,0.00,,,0.00,Wunderground v.1.15,2013-05-30 09:18:00,
2013-05-30 05:23:00,77.9,72.0,30.02,ENE,76,2.0,5.0,82,0.00,,,0.00,Wunderground v.1.15,2013-05-30 09:23:00,
2013-05-30 05:29:00,77.9,72.0,30.02,East,96,1.0,8.0,82,0.00,,,0.00,Wunderground v.1.15,2013-05-30 09:29:00,
2013-05-30 05:34:00,78.0,72.1,30.02,East,92,0.0,9.0,82,0.00,,,0.00,Wunderground v.1.15,2013-05-30 09:34:00,
2013-05-30 05:39:00,78.1,72.2,30.02,East,92,4.0,9.0,82,0.00,,,0.00,Wunderground v.1.15,2013-05-30 09:39:00,
2013-05-30 05:44:00,78.1,72.2,30.02,ENE,65,3.0,6.0,82,0.00,,,0.00,Wunderground v.1.15,2013-05-30 09:44:00,
2013-05-30 05:49:00,78.1,72.2,30.02,NNE,18,3.0,12.0,82,0.00,,,0.00,Wunderground v.1.15,2013-05-30 09:49:00,
2013-05-30 05:54:00,78.1,72.2,30.03,ESE,107,10.0,10.0,82,0.00,,,0.00,Wunderground v.1.15,2013-05-30 09:54:00,
2013-05-30 05:59:00,78.3,72.3,30.02,East,93,5.0,13.0,82,0.00,,,0.00,Wunderground v.1.15,2013-05-30 09:59:00,
2013-05-30 06:04:00,78.2,72.3,30.02,ENE,77,5.0,11.0,82,0.00,,,0.00,Wunderground v.1.15,2013-05-30 10:04:00,
2013-05-30 06:09:00,78.1,72.2,30.02,East,89,0.0,11.0,82,0.00,,,0.00,Wunderground v.1.15,2013-05-30 10:09:00,
2013-05-30 06:14:00,78.1,72.5,30.02,NE,41,2.0,9.0,83,0.00,,,0.00,Wunderground v.1.15,2013-05-30 10:14:00,
2013-05-30 06:19:00,78.1,72.5,30.02,ENE,61,3.0,12.0,83,0.00,,,0.00,Wunderground v.1.15,2013-05-30 10:19:00,
2013-05-30 06:24:00,78.1,72.5,30.02,East,84,1.0,14.0,83,0.00,,,0.00,Wunderground v.1.15,2013-05-30 10:24:00,
2013-05-30 06:29:00,78.1,72.5,30.03,ESE,108,5.0,14.0,83,0.00,,,0.00,Wunderground v.1.15,2013-05-30 10:29:00,
2013-05-30 06:34:00,78.2,73.0,30.03,ESE,118,2.0,10.0,84,0.00,,,0.00,Wunderground v.1.15,2013-05-30 10:34:00,
2013-05-30 06:39:00,78.2,73.0,30.03,East,93,1.0,10.0,84,0.00,,,0.00,Wunderground v.1.15,2013-05-30 10:39:00,
2013-05-30 06:44:00,78.2,73.0,30.03,East,96,7.0,7.0,84,0.00,,,0.00,Wunderground v.1.15,2013-05-30 10:44:00,
2013-05-30 06:49:00,78.0,72.8,30.03,ENE,69,2.0,10.0,84,0.00,,,0.00,Wunderground v.1.15,2013-05-30 10:49:00,
2013-05-30 06:54:00,77.8,72.6,30.04,East,82,0.0,8.0,84,0.00,,,0.00,Wunderground v.1.15,2013-05-30 10:54:00,
2013-05-30 06:59:00,77.6,72.7,30.04,East,101,1.0,10.0,85,0.00,,,0.00,Wunderground v.1.15,2013-05-30 10:59:00,
2013-05-30 07:04:00,77.4,72.9,30.04,ESE,106,1.0,7.0,86,0.00,,,0.00,Wunderground v.1.15,2013-05-30 11:04:00,
2013-05-30 07:09:00,77.4,72.9,30.04,East,89,4.0,8.0,86,0.00,,,0.00,Wunderground v.1.15,2013-05-30 11:09:00,
2013-05-30 07:14:00,77.5,73.0,30.03,ENE,73,1.0,8.0,86,0.00,,,0.00,Wunderground v.1.15,2013-05-30 11:14:00,
2013-05-30 07:19:00,77.7,73.2,30.04,East,80,4.0,9.0,86,0.00,,,0.00,Wunderground v.1.15,2013-05-30 11:19:00,
2013-05-30 07:24:00,77.8,73.3,30.04,East,98,5.0,6.0,86,0.00,,,0.00,Wunderground v.1.15,2013-05-30 11:24:00,
2013-05-30 07:29:00,77.7,73.5,30.04,ENE,72,6.0,14.0,87,0.00,,,0.00,Wunderground v.1.15,2013-05-30 11:29:00,
2013-05-30 07:34:00,77.3,73.8,30.04,East,82,3.0,10.0,89,0.00,,,0.01,Wunderground v.1.15,2013-05-30 11:34:00,
2013-05-30 07:39:00,76.8,73.6,30.05,ESE,119,2.0,10.0,90,0.34,,,0.05,Wunderground v.1.15,2013-05-30 11:39:00,
2013-05-30 07:44:00,76.6,74.1,30.04,SSE,166,2.0,7.0,92,0.11,,,0.05,Wunderground v.1.15,2013-05-30 11:44:00,
2013-05-30 07:49:00,76.7,74.5,30.05,ENE,68,7.0,7.0,93,0.06,,,0.05,Wunderground v.1.15,2013-05-30 11:49:00,
2013-05-30 07:54:00,76.8,74.3,30.05,East,99,3.0,7.0,92,0.04,,,0.05,Wunderground v.1.15,2013-05-30 11:54:00,
2013-05-30 07:59:00,77.4,74.9,30.05,East,93,3.0,10.0,92,0.00,,,0.05,Wunderground v.1.15,2013-05-30 11:59:00,
2013-05-30 08:04:00,77.5,74.0,30.05,ESE,118,7.0,9.0,89,0.00,,,0.05,Wunderground v.1.15,2013-05-30 12:04:00,
2013-05-30 08:09:00,77.5,74.0,30.05,NE,56,2.0,14.0,89,0.00,,,0.05,Wunderground v.1.15,2013-05-30 12:09:00,
2013-05-30 08:14:00,77.6,74.1,30.05,East,101,0.0,7.0,89,0.00,,,0.05,Wunderground v.1.15,2013-05-30 12:14:00,
2013-05-30 08:19:00,77.9,74.4,30.05,East,82,6.0,14.0,89,0.00,,,0.05,Wunderground v.1.15,2013-05-30 12:19:00,
2013-05-30 08:24:00,78.2,74.4,30.05,ESE,104,2.0,8.0,88,0.00,,,0.05,Wunderground v.1.15,2013-05-30 12:24:00,
2013-05-30 08:29:00,78.2,74.4,30.06,ENE,75,2.0,10.0,88,0.00,,,0.05,Wunderground v.1.15,2013-05-30 12:29:00,
2013-05-30 08:34:00,78.2,74.4,30.06,East,82,4.0,15.0,88,0.00,,,0.05,Wunderground v.1.15,2013-05-30 12:34:00,
2013-05-30 08:39:00,78.3,74.8,30.06,East,86,11.0,15.0,89,0.00,,,0.05,Wunderground v.1.15,2013-05-30 12:39:00,
2013-05-30 08:44:00,78.0,73.8,30.06,East,97,6.0,12.0,87,0.00,,,0.05,Wunderground v.1.15,2013-05-30 12:44:00,
2013-05-30 08:49:00,77.8,74.0,30.06,ESE,119,0.0,12.0,88,0.00,,,0.05,Wunderground v.1.15,2013-05-30 12:49:00,
2013-05-30 08:54:00,77.7,74.2,30.06,ESE,113,4.0,9.0,89,0.00,,,0.05,Wunderground v.1.15,2013-05-30 12:54:00,
2013-05-30 08:59:00,77.8,74.3,30.07,East,89,5.0,9.0,89,0.00,,,0.05,Wunderground v.1.15,2013-05-30 12:59:00,
2013-05-30 09:04:00,78.2,74.0,30.07,SSE,148,1.0,8.0,87,0.00,,,0.05,Wunderground v.1.15,2013-05-30 13:04:00,
2013-05-30 09:09:00,78.3,73.4,30.07,East,101,6.0,10.0,85,0.00,,,0.05,Wunderground v.1.15,2013-05-30 13:09:00,
2013-05-30 09:14:00,78.5,73.3,30.07,ENE,76,8.0,13.0,84,0.00,,,0.05,Wunderground v.1.15,2013-05-30 13:14:00,
2013-05-30 09:19:00,78.8,73.6,30.07,ESE,110,4.0,13.0,84,0.00,,,0.05,Wunderground v.1.15,2013-05-30 13:19:00,
2013-05-30 09:24:00,79.1,73.5,30.07,East,95,3.0,9.0,83,0.00,,,0.05,Wunderground v.1.15,2013-05-30 13:24:00,
2013-05-30 09:29:00,79.3,73.7,30.06,ENE,62,3.0,12.0,83,0.00,,,0.05,Wunderground v.1.15,2013-05-30 13:29:00,
2013-05-30 09:34:00,79.7,74.1,30.06,East,82,4.0,14.0,83,0.00,,,0.05,Wunderground v.1.15,2013-05-30 13:34:00,
2013-05-30 09:39:00,80.1,74.1,30.07,East,91,4.0,14.0,82,0.00,,,0.05,Wunderground v.1.15,2013-05-30 13:39:00,
2013-05-30 09:44:00,80.1,74.5,30.07,East,82,1.0,13.0,83,0.00,,,0.05,Wunderground v.1.15,2013-05-30 13:44:00,
2013-05-30 09:49:00,80.0,74.7,30.07,NE,48,6.0,13.0,84,0.00,,,0.05,Wunderground v.1.15,2013-05-30 13:49:00,
2013-05-30 09:54:00,79.9,74.6,30.07,ESE,106,6.0,12.0,84,0.00,,,0.06,Wunderground v.1.15,2013-05-30 13:54:00,
2013-05-30 09:59:00,80.0,74.4,30.06,ESE,105,2.0,12.0,83,0.00,,,0.06,Wunderground v.1.15,2013-05-30 13:59:00,
2013-05-30 10:04:00,80.3,74.3,30.06,ESE,106,3.0,11.0,82,0.00,,,0.06,Wunderground v.1.15,2013-05-30 14:04:00,
2013-05-30 10:09:00,80.6,74.2,30.06,SE,134,3.0,11.0,81,0.00,,,0.06,Wunderground v.1.15,2013-05-30 14:09:00,
2013-05-30 10:14:00,80.9,74.5,30.06,SSE,162,1.0,14.0,81,0.00,,,0.06,Wunderground v.1.15,2013-05-30 14:14:00,
2013-05-30 10:19:00,81.1,74.3,30.06,ENE,60,6.0,14.0,80,0.00,,,0.06,Wunderground v.1.15,2013-05-30 14:19:00,
2013-05-30 10:24:00,81.5,74.7,30.06,ESE,106,6.0,8.0,80,0.00,,,0.06,Wunderground v.1.15,2013-05-30 14:24:00,
2013-05-30 10:29:00,81.8,75.0,30.06,East,100,4.0,14.0,80,0.00,,,0.06,Wunderground v.1.15,2013-05-30 14:29:00,
2013-05-30 10:34:00,81.9,74.4,30.06,East,84,1.0,11.0,78,0.00,,,0.06,Wunderground v.1.15,2013-05-30 14:34:00,
2013-05-30 10:39:00,81.7,74.5,30.06,East,81,7.0,11.0,79,0.00,,,0.06,Wunderground v.1.15,2013-05-30 14:39:00,
2013-05-30 10:44:00,81.8,74.6,30.06,East,96,6.0,11.0,79,0.00,,,0.06,Wunderground v.1.15,2013-05-30 14:44:00,
2013-05-30 10:49:00,81.9,74.4,30.06,ENE,76,7.0,18.0,78,0.00,,,0.06,Wunderground v.1.15,2013-05-30 14:49:00,
2013-05-30 10:54:00,81.9,74.7,30.07,SE,138,3.0,14.0,79,0.00,,,0.06,Wunderground v.1.15,2013-05-30 14:54:00,
2013-05-30 10:59:00,82.2,74.7,30.07,ESE,119,6.0,15.0,78,0.00,,,0.06,Wunderground v.1.15,2013-05-30 14:59:00,
2013-05-30 11:04:00,82.1,74.6,30.07,ENE,63,7.0,12.0,78,0.00,,,0.06,Wunderground v.1.15,2013-05-30 15:04:00,
2013-05-30 11:09:00,81.9,74.0,30.07,East,96,4.0,19.0,77,0.00,,,0.06,Wunderground v.1.15,2013-05-30 15:09:00,
2013-05-30 11:14:00,82.0,74.5,30.07,ENE,69,4.0,11.0,78,0.00,,,0.06,Wunderground v.1.15,2013-05-30 15:14:00,
2013-05-30 11:19:00,82.3,74.4,30.07,East,93,5.0,12.0,77,0.00,,,0.06,Wunderground v.1.15,2013-05-30 15:19:00,
2013-05-30 11:24:00,81.9,74.0,30.07,ESE,102,12.0,15.0,77,0.00,,,0.06,Wunderground v.1.15,2013-05-30 15:24:00,
2013-05-30 11:29:00,81.7,74.5,30.07,East,97,3.0,15.0,79,0.00,,,0.06,Wunderground v.1.15,2013-05-30 15:29:00,
2013-05-30 11:34:00,81.6,74.1,30.08,East,81,3.0,10.0,78,0.00,,,0.06,Wunderground v.1.15,2013-05-30 15:34:00,
2013-05-30 11:39:00,81.5,74.0,30.08,East,86,4.0,15.0,78,0.00,,,0.06,Wunderground v.1.15,2013-05-30 15:39:00,
2013-05-30 11:44:00,81.5,74.4,30.08,East,97,0.0,9.0,79,0.00,,,0.06,Wunderground v.1.15,2013-05-30 15:44:00,
2013-05-30 11:50:00,81.4,74.3,30.08,ENE,68,6.0,6.0,79,0.00,,,0.06,Wunderground v.1.15,2013-05-30 15:50:00,
2013-05-30 11:55:00,80.7,75.1,30.08,ENE,73,2.0,11.0,83,0.00,,,0.06,Wunderground v.1.15,2013-05-30 15:55:00,
2013-05-30 12:00:00,80.3,75.7,30.07,ENE,70,3.0,4.0,86,0.00,,,0.06,Wunderground v.1.15,2013-05-30 16:00:00,
2013-05-30 12:05:00,80.6,75.0,30.08,ENE,77,11.0,13.0,83,0.00,,,0.06,Wunderground v.1.15,2013-05-30 16:05:00,
2013-05-30 12:10:00,80.2,75.3,30.07,ESE,109,0.0,4.0,85,0.00,,,0.06,Wunderground v.1.15,2013-05-30 16:10:00,
2013-05-30 12:15:00,80.7,75.4,30.06,ENE,65,8.0,16.0,84,0.00,,,0.06,Wunderground v.1.15,2013-05-30 16:15:00,
2013-05-30 12:20:00,81.1,75.1,30.06,NNE,22,6.0,6.0,82,0.00,,,0.06,Wunderground v.1.15,2013-05-30 16:20:00,
2013-05-30 12:25:00,81.1,75.4,30.06,East,88,16.0,16.0,83,0.00,,,0.06,Wunderground v.1.15,2013-05-30 16:25:00,
2013-05-30 12:30:00,81.1,75.1,30.06,East,97,6.0,7.0,82,0.00,,,0.07,Wunderground v.1.15,2013-05-30 16:30:00,
2013-05-30 12:35:00,81.5,75.1,30.06,ENE,69,8.0,10.0,81,0.00,,,0.07,Wunderground v.1.15,2013-05-30 16:35:00,
2013-05-30 12:40:00,81.7,76.4,30.06,SE,125,4.0,6.0,84,0.00,,,0.07,Wunderground v.1.15,2013-05-30 16:40:00,
2013-05-30 12:45:00,82.1,75.3,30.06,ENE,70,6.0,14.0,80,0.00,,,0.07,Wunderground v.1.15,2013-05-30 16:45:00,
2013-05-30 12:50:00,82.9,74.9,30.06,ENE,75,6.0,9.0,77,0.00,,,0.07,Wunderground v.1.15,2013-05-30 16:50:00,
2013-05-30 12:55:00,83.3,75.7,30.06,ESE,119,2.0,13.0,78,0.00,,,0.07,Wunderground v.1.15,2013-05-30 16:55:00,
2013-05-30 13:00:00,82.7,75.1,30.06,ENE,77,6.0,6.0,78,0.00,,,0.07,Wunderground v.1.15,2013-05-30 17:00:00,
2013-05-30 13:05:00,82.7,75.5,30.05,East,98,3.0,14.0,79,0.00,,,0.07,Wunderground v.1.15,2013-05-30 17:05:00,
2013-05-30 13:10:00,83.0,75.0,30.05,East,94,8.0,11.0,77,0.00,,,0.07,Wunderground v.1.15,2013-05-30 17:10:00,
2013-05-30 13:15:00,82.9,75.3,30.05,ENE,74,3.0,12.0,78,0.00,,,0.07,Wunderground v.1.15,2013-05-30 17:15:00,
2013-05-30 13:20:00,83.2,74.8,30.05,ENE,61,9.0,9.0,76,0.00,,,0.07,Wunderground v.1.15,2013-05-30 17:20:00,
2013-05-30 13:25:00,83.5,74.7,30.05,ESE,108,7.0,16.0,75,0.00,,,0.07,Wunderground v.1.15,2013-05-30 17:25:00,
2013-05-30 13:30:00,84.2,75.0,30.05,East,96,1.0,4.0,74,0.00,,,0.07,Wunderground v.1.15,2013-05-30 17:30:00,
2013-05-30 13:35:00,84.3,73.9,30.06,East,83,8.0,11.0,71,0.00,,,0.07,Wunderground v.1.15,2013-05-30 17:35:00,
2013-05-30 13:40:00,84.3,74.7,30.06,ESE,114,6.0,12.0,73,0.00,,,0.07,Wunderground v.1.15,2013-05-30 17:40:00,
2013-05-30 13:45:00,84.0,74.4,30.06,ENE,57,1.0,13.0,73,0.00,,,0.07,Wunderground v.1.15,2013-05-30 17:45:00,
2013-05-30 13:50:00,83.6,74.0,30.06,ESE,102,4.0,10.0,73,0.00,,,0.07,Wunderground v.1.15,2013-05-30 17:50:00,
2013-05-30 13:55:00,82.8,74.1,30.06,ESE,121,0.0,12.0,75,0.00,,,0.07,Wunderground v.1.15,2013-05-30 17:55:00,
2013-05-30 14:01:00,82.6,74.3,30.06,ENE,61,7.0,7.0,76,0.00,,,0.07,Wunderground v.1.15,2013-05-30 18:01:00,
2013-05-30 14:06:00,82.4,74.1,30.06,NE,53,6.0,14.0,76,0.00,,,0.07,Wunderground v.1.15,2013-05-30 18:06:00,
2013-05-30 14:11:00,83.0,74.6,30.05,East,82,4.0,6.0,76,0.00,,,0.07,Wunderground v.1.15,2013-05-30 18:11:00,
2013-05-30 14:16:00,83.5,74.7,30.04,East,96,4.0,13.0,75,0.00,,,0.07,Wunderground v.1.15,2013-05-30 18:16:00,
2013-05-30 14:21:00,83.9,75.9,30.04,ESE,108,10.0,10.0,77,0.00,,,0.07,Wunderground v.1.15,2013-05-30 18:21:00,
2013-05-30 14:26:00,83.9,75.5,30.04,SE,143,3.0,13.0,76,0.00,,,0.07,Wunderground v.1.15,2013-05-30 18:26:00,
2013-05-30 14:31:00,83.7,75.3,30.04,East,91,6.0,14.0,76,0.00,,,0.07,Wunderground v.1.15,2013-05-30 18:31:00,
2013-05-30 14:36:00,82.7,75.1,30.04,East,82,5.0,17.0,78,0.00,,,0.07,Wunderground v.1.15,2013-05-30 18:36:00,
2013-05-30 14:41:00,81.7,75.3,30.04,East,98,7.0,9.0,81,0.00,,,0.07,Wunderground v.1.15,2013-05-30 18:41:00,
2013-05-30 14:46:00,81.4,76.1,30.04,ENE,63,2.0,12.0,84,0.00,,,0.08,Wunderground v.1.15,2013-05-30 18:46:00,
2013-05-30 14:51:00,79.9,75.7,30.04,East,84,2.0,10.0,87,1.32,,,0.16,Wunderground v.1.15,2013-05-30 18:51:00,
2013-05-30 14:56:00,78.6,75.1,30.05,SE,138,7.0,12.0,89,1.32,,,0.25,Wunderground v.1.15,2013-05-30 18:56:00,
2013-05-30 15:01:00,77.6,74.8,30.04,East,97,3.0,6.0,91,0.62,,,0.35,Wunderground v.1.15,2013-05-30 19:01:00,
2013-05-30 15:06:00,77.3,74.8,30.04,East,92,0.0,6.0,92,0.18,,,0.36,Wunderground v.1.15,2013-05-30 19:06:00,
2013-05-30 15:11:00,77.6,75.7,30.03,East,89,0.0,3.0,94,0.07,,,0.36,Wunderground v.1.15,2013-05-30 19:11:00,
2013-05-30 15:16:00,77.9,75.7,30.03,ENE,77,6.0,9.0,93,0.05,,,0.36,Wunderground v.1.15,2013-05-30 19:16:00,
2013-05-30 15:21:00,78.1,75.3,30.03,ENE,72,1.0,14.0,91,0.00,,,0.36,Wunderground v.1.15,2013-05-30 19:21:00,
2013-05-30 15:26:00,78.6,75.8,30.03,NE,39,1.0,14.0,91,0.00,,,0.36,Wunderground v.1.15,2013-05-30 19:26:00,
2013-05-30 15:31:00,79.3,76.1,30.02,ESE,105,7.0,10.0,90,0.00,,,0.36,Wunderground v.1.15,2013-05-30 19:31:00,
2013-05-30 15:36:00,79.7,75.8,30.02,East,84,6.0,15.0,88,0.00,,,0.36,Wunderground v.1.15,2013-05-30 19:36:00,
2013-05-30 15:41:00,80.2,76.0,30.02,ENE,75,9.0,9.0,87,0.00,,,0.36,Wunderground v.1.15,2013-05-30 19:41:00,
2013-05-30 15:46:00,80.5,75.6,30.02,NE,48,6.0,12.0,85,0.00,,,0.36,Wunderground v.1.15,2013-05-30 19:46:00,
2013-05-30 15:51:00,80.7,75.8,30.01,East,93,0.0,8.0,85,0.00,,,0.36,Wunderground v.1.15,2013-05-30 19:51:00,
2013-05-30 15:56:00,80.6,75.0,30.01,ENE,65,5.0,13.0,83,0.00,,,0.36,Wunderground v.1.15,2013-05-30 19:56:00,
2013-05-30 16:01:00,80.6,74.6,30.01,ESE,114,3.0,12.0,82,0.00,,,0.36,Wunderground v.1.15,2013-05-30 20:01:00,
2013-05-30 16:06:00,80.7,75.4,30.01,East,95,3.0,12.0,84,0.00,,,0.36,Wunderground v.1.15,2013-05-30 20:06:00,
2013-05-30 16:11:00,81.0,75.3,30.01,ENE,70,2.0,8.0,83,0.00,,,0.36,Wunderground v.1.15,2013-05-30 20:11:00,
2013-05-30 16:16:00,80.6,75.3,30.01,ESE,117,8.0,15.0,84,0.00,,,0.36,Wunderground v.1.15,2013-05-30 20:16:00,
2013-05-30 16:21:00,79.4,75.2,30.01,ENE,67,4.0,13.0,87,0.20,,,0.38,Wunderground v.1.15,2013-05-30 20:21:00,
2013-05-30 16:26:00,78.3,74.8,30.01,ESE,111,7.0,15.0,89,0.13,,,0.39,Wunderground v.1.15,2013-05-30 20:26:00,
2013-05-30 17:09:00,76.6,74.1,30.02,East,86,6.0,14.0,92,0.00,,,0.40,Wunderground v.1.15,2013-05-30 21:09:00,
2013-05-30 17:14:00,76.5,74.0,30.01,East,79,8.0,15.0,92,0.00,,,0.40,Wunderground v.1.15,2013-05-30 21:14:00,
2013-05-30 17:19:00,76.7,74.2,30.01,East,93,6.0,15.0,92,0.00,,,0.40,Wunderground v.1.15,2013-05-30 21:19:00,
2013-05-30 17:24:00,76.9,74.1,30.01,ENE,67,6.0,15.0,91,0.00,,,0.40,Wunderground v.1.15,2013-05-30 21:24:00,
2013-05-30 17:29:00,77.0,74.2,30.01,East,96,2.0,15.0,91,0.00,,,0.40,Wunderground v.1.15,2013-05-30 21:29:00,
2013-05-30 17:34:00,77.0,73.8,30.01,East,89,6.0,11.0,90,0.00,,,0.40,Wunderground v.1.15,2013-05-30 21:34:00,
2013-05-30 17:39:00,77.4,74.6,30.01,East,86,1.0,11.0,91,0.00,,,0.40,Wunderground v.1.15,2013-05-30 21:39:00,
2013-05-30 17:44:00,77.2,74.4,30.01,East,79,1.0,13.0,91,0.26,,,0.42,Wunderground v.1.15,2013-05-30 21:44:00,
2013-05-30 17:49:00,76.8,73.6,30.01,East,92,3.0,13.0,90,0.08,,,0.42,Wunderground v.1.15,2013-05-30 21:49:00,
2013-05-30 17:54:00,76.6,73.4,30.01,SSE,159,3.0,10.0,90,0.05,,,0.42,Wunderground v.1.15,2013-05-30 21:54:00,
2013-05-30 17:59:00,76.8,73.3,30.01,East,90,14.0,14.0,89,0.00,,,0.42,Wunderground v.1.15,2013-05-30 21:59:00,
2013-05-30 18:04:00,77.2,73.4,30.02,ENE,70,5.0,10.0,88,0.00,,,0.42,Wunderground v.1.15,2013-05-30 22:04:00,
2013-05-30 18:09:00,77.5,73.3,30.02,ESE,108,6.0,14.0,87,0.00,,,0.42,Wunderground v.1.15,2013-05-30 22:09:00,
2013-05-30 18:14:00,77.7,73.2,30.02,ENE,75,13.0,16.0,86,0.00,,,0.42,Wunderground v.1.15,2013-05-30 22:14:00,
2013-05-30 18:19:00,77.7,72.8,30.02,SSW,193,2.0,16.0,85,0.00,,,0.42,Wunderground v.1.15,2013-05-30 22:19:00,
2013-05-30 18:24:00,77.7,72.8,30.02,East,94,16.0,16.0,85,0.00,,,0.42,Wunderground v.1.15,2013-05-30 22:24:00,
2013-05-30 18:29:00,77.7,73.2,30.02,SSE,156,4.0,17.0,86,0.00,,,0.42,Wunderground v.1.15,2013-05-30 22:29:00,
2013-05-30 18:34:00,77.8,73.6,30.02,East,89,10.0,14.0,87,0.00,,,0.42,Wunderground v.1.15,2013-05-30 22:34:00,
2013-05-30 18:39:00,78.1,73.6,30.01,ESE,102,4.0,14.0,86,0.00,,,0.42,Wunderground v.1.15,2013-05-30 22:39:00,
2013-05-30 18:44:00,78.4,73.2,30.01,East,95,8.0,12.0,84,0.00,,,0.42,Wunderground v.1.15,2013-05-30 22:44:00,
2013-05-30 18:49:00,78.6,73.0,30.02,East,92,6.0,18.0,83,0.00,,,0.42,Wunderground v.1.15,2013-05-30 22:49:00,
2013-05-30 18:54:00,78.6,73.0,30.02,East,91,12.0,12.0,83,0.00,,,0.42,Wunderground v.1.15,2013-05-30 22:54:00,
2013-05-30 18:59:00,78.6,73.0,30.02,East,79,5.0,13.0,83,0.00,,,0.42,Wunderground v.1.15,2013-05-30 22:59:00,
2013-05-30 19:04:00,78.5,73.3,30.02,East,89,1.0,12.0,84,0.00,,,0.42,Wunderground v.1.15,2013-05-30 23:04:00,
2013-05-30 19:09:00,78.4,73.2,30.03,SE,145,2.0,12.0,84,0.00,,,0.42,Wunderground v.1.15,2013-05-30 23:09:00,
2013-05-30 19:14:00,78.4,73.2,30.03,East,91,5.0,10.0,84,0.00,,,0.42,Wunderground v.1.15,2013-05-30 23:14:00,
2013-05-30 19:19:00,78.3,73.1,30.03,NNE,20,1.0,10.0,84,0.00,,,0.42,Wunderground v.1.15,2013-05-30 23:19:00,
2013-05-30 19:24:00,78.3,73.1,30.03,East,83,7.0,10.0,84,0.00,,,0.42,Wunderground v.1.15,2013-05-30 23:24:00,
2013-05-30 19:29:00,78.3,73.1,30.03,ESE,110,3.0,17.0,84,0.00,,,0.42,Wunderground v.1.15,2013-05-30 23:29:00,
2013-05-30 19:34:00,78.2,73.0,30.03,East,92,4.0,10.0,84,0.00,,,0.42,Wunderground v.1.15,2013-05-30 23:34:00,
2013-05-30 19:39:00,78.2,72.6,30.03,East,96,8.0,10.0,83,0.00,,,0.42,Wunderground v.1.15,2013-05-30 23:39:00,
2013-05-30 19:44:00,78.2,72.6,30.04,ESE,122,2.0,10.0,83,0.00,,,0.42,Wunderground v.1.15,2013-05-30 23:44:00,
2013-05-30 19:49:00,78.2,71.9,30.03,ESE,111,1.0,10.0,81,0.00,,,0.42,Wunderground v.1.15,2013-05-30 23:49:00,
2013-05-30 19:54:00,78.3,71.6,30.04,East,101,12.0,14.0,80,0.00,,,0.42,Wunderground v.1.15,2013-05-30 23:54:00,
2013-05-30 19:59:00,78.4,71.3,30.04,East,94,12.0,14.0,79,0.00,,,0.42,Wunderground v.1.15,2013-05-30 23:59:00,
2013-05-30 20:04:00,78.5,71.8,30.04,East,89,5.0,9.0,80,0.00,,,0.42,Wunderground v.1.15,2013-05-31 00:04:00,
2013-05-30 20:09:00,78.4,71.7,30.04,ENE,59,1.0,9.0,80,0.00,,,0.42,Wunderground v.1.15,2013-05-31 00:09:00,
2013-05-30 20:14:00,78.4,71.7,30.04,ENE,73,3.0,10.0,80,0.00,,,0.42,Wunderground v.1.15,2013-05-31 00:14:00,
2013-05-30 20:19:00,78.4,71.7,30.04,ENE,66,3.0,10.0,80,0.00,,,0.42,Wunderground v.1.15,2013-05-31 00:19:00,
2013-05-30 20:24:00,78.4,71.7,30.04,East,98,1.0,5.0,80,0.00,,,0.42,Wunderground v.1.15,2013-05-31 00:24:00,
2013-05-30 20:29:00,78.3,71.6,30.04,East,89,5.0,10.0,80,0.00,,,0.42,Wunderground v.1.15,2013-05-31 00:29:00,
2013-05-30 20:34:00,78.4,71.7,30.04,East,88,4.0,11.0,80,0.00,,,0.42,Wunderground v.1.15,2013-05-31 00:34:00,
2013-05-30 20:39:00,78.4,71.3,30.04,East,82,2.0,11.0,79,0.00,,,0.42,Wunderground v.1.15,2013-05-31 00:39:00,
2013-05-30 20:44:00,78.3,71.2,30.05,East,82,6.0,10.0,79,0.00,,,0.42,Wunderground v.1.15,2013-05-31 00:44:00,
2013-05-30 20:49:00,78.2,70.8,30.05,East,92,0.0,10.0,78,0.00,,,0.42,Wunderground v.1.15,2013-05-31 00:49:00,
2013-05-30 20:54:00,78.2,70.4,30.05,ENE,77,4.0,15.0,77,0.00,,,0.42,Wunderground v.1.15,2013-05-31 00:54:00,
2013-05-30 20:59:00,78.1,70.7,30.05,ENE,77,3.0,15.0,78,0.00,,,0.42,Wunderground v.1.15,2013-05-31 00:59:00,
2013-05-30 21:04:00,78.1,71.1,30.05,East,82,1.0,10.0,79,0.00,,,0.42,Wunderground v.1.15,2013-05-31 01:04:00,
2013-05-30 21:09:00,78.1,71.1,30.06,North,360,2.0,10.0,79,0.00,,,0.42,Wunderground v.1.15,2013-05-31 01:09:00,
2013-05-30 21:14:00,78.0,71.0,30.06,East,87,4.0,8.0,79,0.00,,,0.42,Wunderground v.1.15,2013-05-31 01:14:00,
2013-05-30 21:19:00,78.0,71.3,30.06,East,96,4.0,8.0,80,0.00,,,0.42,Wunderground v.1.15,2013-05-31 01:19:00,
2013-05-30 21:24:00,78.0,71.3,30.06,East,82,4.0,8.0,80,0.00,,,0.42,Wunderground v.1.15,2013-05-31 01:24:00,
2013-05-30 21:29:00,78.1,71.4,30.06,NE,47,1.0,12.0,80,0.00,,,0.42,Wunderground v.1.15,2013-05-31 01:29:00,
2013-05-30 21:34:00,78.1,71.4,30.06,NE,56,3.0,7.0,80,0.00,,,0.42,Wunderground v.1.15,2013-05-31 01:34:00,
2013-05-30 21:39:00,78.1,71.4,30.06,ENE,60,7.0,7.0,80,0.00,,,0.42,Wunderground v.1.15,2013-05-31 01:39:00,
2013-05-30 21:44:00,78.0,71.7,30.06,ESE,117,4.0,9.0,81,0.00,,,0.42,Wunderground v.1.15,2013-05-31 01:44:00,
2013-05-30 21:49:00,78.0,71.7,30.06,East,93,4.0,12.0,81,0.00,,,0.42,Wunderground v.1.15,2013-05-31 01:49:00,
2013-05-30 21:54:00,78.1,72.2,30.06,East,85,4.0,6.0,82,0.00,,,0.42,Wunderground v.1.15,2013-05-31 01:54:00,
2013-05-30 21:59:00,78.1,72.2,30.06,East,82,7.0,10.0,82,0.00,,,0.42,Wunderground v.1.15,2013-05-31 01:59:00,
2013-05-30 22:04:00,78.2,72.6,30.06,East,100,0.0,6.0,83,0.00,,,0.42,Wunderground v.1.15,2013-05-31 02:04:00,
2013-05-30 22:09:00,78.2,72.6,30.06,East,101,3.0,7.0,83,0.00,,,0.42,Wunderground v.1.15,2013-05-31 02:09:00,
2013-05-30 22:14:00,78.2,72.6,30.05,ESE,106,1.0,7.0,83,0.00,,,0.42,Wunderground v.1.15,2013-05-31 02:14:00,
2013-05-30 22:19:00,78.2,72.6,30.05,NNE,32,3.0,10.0,83,0.00,,,0.42,Wunderground v.1.15,2013-05-31 02:19:00,
2013-05-30 22:24:00,78.1,72.9,30.06,ENE,63,7.0,8.0,84,0.00,,,0.42,Wunderground v.1.15,2013-05-31 02:24:00,
2013-05-30 22:29:00,78.0,72.8,30.06,East,87,3.0,8.0,84,0.00,,,0.42,Wunderground v.1.15,2013-05-31 02:29:00,
2013-05-30 22:34:00,77.9,72.7,30.06,East,101,5.0,10.0,84,0.00,,,0.42,Wunderground v.1.15,2013-05-31 02:34:00,
2013-05-30 22:39:00,77.9,73.0,30.06,East,91,3.0,10.0,85,0.00,,,0.42,Wunderground v.1.15,2013-05-31 02:39:00,
2013-05-30 22:44:00,78.0,73.5,30.06,East,91,2.0,7.0,86,0.00,,,0.42,Wunderground v.1.15,2013-05-31 02:44:00,
2013-05-30 22:49:00,77.9,73.4,30.06,East,87,0.0,7.0,86,0.00,,,0.42,Wunderground v.1.15,2013-05-31 02:49:00,
2013-05-30 22:54:00,77.8,73.6,30.06,ESE,111,0.0,3.0,87,0.00,,,0.42,Wunderground v.1.15,2013-05-31 02:54:00,
2013-05-30 22:59:00,77.8,73.6,30.06,ENE,72,2.0,5.0,87,0.00,,,0.42,Wunderground v.1.15,2013-05-31 02:59:00,
2013-05-30 23:04:00,77.8,73.6,30.06,NE,37,3.0,4.0,87,0.00,,,0.42,Wunderground v.1.15,2013-05-31 03:04:00,
2013-05-30 23:09:00,77.9,73.7,30.06,ESE,103,2.0,7.0,87,0.00,,,0.42,Wunderground v.1.15,2013-05-31 03:09:00,
2013-05-30 23:14:00,77.9,73.4,30.06,South,169,1.0,10.0,86,0.00,,,0.42,Wunderground v.1.15,2013-05-31 03:14:00,
2013-05-30 23:19:00,77.9,73.4,30.06,ENE,69,0.0,10.0,86,0.00,,,0.42,Wunderground v.1.15,2013-05-31 03:19:00,
2013-05-30 23:24:00,77.8,73.3,30.06,SE,127,4.0,5.0,86,0.00,,,0.42,Wunderground v.1.15,2013-05-31 03:24:00,
2013-05-30 23:29:00,77.7,73.2,30.07,ESE,108,2.0,7.0,86,0.00,,,0.42,Wunderground v.1.15,2013-05-31 03:29:00,
2013-05-30 23:34:00,77.7,73.2,30.07,East,98,1.0,10.0,86,0.00,,,0.42,Wunderground v.1.15,2013-05-31 03:34:00,
2013-05-30 23:39:00,77.7,72.8,30.07,East,93,0.0,10.0,85,0.00,,,0.42,Wunderground v.1.15,2013-05-31 03:39:00,
2013-05-30 23:44:00,77.6,72.7,30.07,East,79,0.0,9.0,85,0.00,,,0.42,Wunderground v.1.15,2013-05-31 03:44:00,
2013-05-30 23:49:00,77.7,72.8,30.07,East,91,0.0,9.0,85,0.00,,,0.42,Wunderground v.1.15,2013-05-31 03:49:00,
2013-05-30 23:54:00,77.7,72.8,30.07,ENE,77,0.0,3.0,85,0.00,,,0.42,Wunderground v.1.15,2013-05-31 03:54:00,
2013-05-30 23:59:00,77.7,72.8,30.06,East,91,0.0,6.0,85,0.00,,,0.42,Wunderground v.1.15,2013-05-31 03:59:00,